Back to catalog

CZ-6A DEB

AliveSSO
NORAD 54453·DEBRIS·🇨🇳 China

Launched Nov 11, 2022 from Taiyuan Satellite Launch Center

Loading…

Next Passes (next 24 hours)

TLE

FreshSource: Space-Track

Epoch: Sep 14, 2026, 06:37 UTC

1 54453U 22151GD  26257.27637082  .00001514  00000-0  80264-3 0  9993
2 54453  98.9115 268.6442 0083463  52.7523 308.1225 14.13387815197173

Track CZ-6A DEB in real time with AllMySat

Download on the App Store